カタログに戻る

PALAPA 1

運用中通信GEO
NORAD 9009·PAYLOAD·🇮🇩 Indonesia

打ち上げ Jul 8, 1976 から Cape Canaveral Space Force Station

Loading…

TLE

最新Source: Space-Track

元期: Sep 14, 2026, 08:37 UTC

1 09009U 76066A   26257.35931174 -.00000130  00000-0  00000-0 0  9993
2 09009   7.7101 304.4577 0004997 242.2374 285.7694  1.00109331128830

AllMySatでPALAPA 1をリアルタイム追跡

Download on the App Store